STARLINK-32500, 61935

Orbit data source: Space-Track

STARLINK-32500, 61935 is a payload satellite owned by SpaceX/Seattle (US) in LEO that was launched on Mon, 11 Nov 2024 UTC via an FALCON 9 launch vehicle from the Air Force Eastern Test Range (AFETR). Payload-class satellites include a variety of spacecraft equipped with specific instruments for various scientific and technological missions. These include communications satellites like Starlink; space stations such as the ISS; scientific satellites like the Hubble; Earth observation satellites from companies like Planet Labs, Umbra, and HawkEye 360; GPS; miniature CubeSats for education and research; and military/defense satellites.

Loading next visibility...
Identifier
61935, 2024-207Z
Orbit
LEO
Country
Flag of USUS
Related business
Manufacturer
SpaceX/Seattle
Mission
Operational Commercial Communications
Bus & Motor
STARLINK V2M, Unknown motor
Mass
730 kg wet, ~700 kg dry
Launch date (UTC)
2024-11-11 (1 year ago)
Launch vehicle
FALCON 9
Launch site
Air Force Eastern Test Range (AFETR)
Object type
Payload
Rocket body
Debris
Shape & HBR
Box + 2 Pan, 17.7 m
Radar Cross Section
33.884 m², Large (>1 m²)

Expand to show TLE details & history
Last TLE update: 2 days ago

TLE from 2 days ago
0 STARLINK-32500
1 61935U 24207Z   25312.81298862  .00037005  00000-0  13451-2 0  9997
2 61935  43.0019 248.0160 0000335 203.8832 156.2004 15.27638824 56196
Epoch: 2025-11-08T19:30Z
TLE epoch observation values (Epoch: 2025-11-08T19:30:42.216Z)
Latitude
-0.00004°
Longitude
-92.89717°
Altitude
482.859 km
Speed
7.626 km/s
True Right ascension
16h 32m 03s
True Declination
0° 00' 00"
Sunlit
Object was in daylight at epoch
Visualization orbit readout
Latitude
Unknown
Longitude
Unknown
Altitude
Unknown
Speed
Unknown
Apparent Right ascension
Unknown
Apparent Declination
Unknown
Sunlit
N/A
Visualization observer readout
Local Sidereal Time
04:43:52
Azimuth
Unknown
Elevation
Unknown
Doppler factor
Unknown
Orbital elements
Apogee altitude
485.048 km
Perigee altitude
484.588 km
Semi-major axis
6,862.955 km
Eccentricity
0.00003
Inclination
43.0019°
RAAN
248.016°
Arg. of periapsis
203.8832°
True anomaly
156.20195°
Mean anomaly
156.2004°
Eccentric anomaly
156.20117°
Mean motion
3.81748 °/min
Orbital period
94.3 mins
BSTAR
0.0013451
Loading maneuver chart data...
Computing Atmospheric mass density...
Loading historical data...
Loading historical data...
Loading historical data...
Loading historical data...
Loading historical data...
Loading historical data...
Loading historical data...

Documentation

Showing up to 5 results
|